| time (UTC) | temp F | wind direction | speed knots | gust knots | rain 1hr in | rain 24hr in | rain mn in | humidity % | barometer mb |
| 20260510224559 | 63 | 266 | 2.6 | 7.8 | 0.00 | 0.08 | 0.08 | 78 | 1013.4 |
| 20260510223053 | 64 | 201 | 0.9 | 7.0 | 0.00 | 0.08 | 0.08 | 74 | 1013.2 |
| 20260510221603 | 64 | 219 | 1.7 | 5.2 | 0.00 | 0.08 | 0.08 | 74 | 1013.2 |
| 20260510220054 | 64 | 274 | 2.6 | 7.0 | 0.00 | 0.08 | 0.08 | 75 | 1013.3 |
| 20260510214608 | 64 | 281 | 3.5 | 7.0 | 0.00 | 0.10 | 0.08 | 77 | 1013.3 |
| 20260510213056 | 63 | 320 | 2.6 | 6.1 | 0.00 | 0.10 | 0.08 | 75 | 1013.1 |
| 20260510211555 | 62 | 0 | 1.7 | 6.1 | 0.00 | 0.10 | 0.08 | 83 | 1013.2 |
| 20260510210054 | 60 | 0 | 0.0 | 0.9 | 0.01 | 0.10 | 0.08 | 92 | 1012.9 |
| 20260510204553 | 59 | 0 | 0.0 | 0.9 | 0.05 | 0.19 | 0.08 | 92 | 1012.7 |
| 20260510203052 | 58 | 0 | 0.0 | 0.0 | 0.07 | 0.19 | 0.08 | 92 | 1012.7 |
| 20260510201549 | 58 | 0 | 0.0 | 3.5 | 0.08 | 0.19 | 0.08 | 91 | 1012.7 |
| 20260510200054 | 58 | 0 | 0.0 | 3.5 | 0.07 | 0.18 | 0.07 | 90 | 1012.9 |
| 20260510194551 | 59 | 0 | 0.0 | 3.5 | 0.03 | 0.18 | 0.03 | 86 | 1013.2 |
| 20260510193104 | 60 | 169 | 0.0 | 5.2 | 0.01 | 0.16 | 0.01 | 81 | 1012.8 |
| 20260510191559 | 62 | 234 | 4.3 | 11.3 | 0.00 | 0.15 | 0.00 | 78 | 1012.8 |
| 20260510190053 | 64 | 200 | 1.7 | 7.0 | 0.00 | 0.15 | 0.00 | 71 | 1012.5 |
| 20260510184554 | 65 | 0 | 1.7 | 6.1 | 0.00 | 0.30 | 0.00 | 68 | 1012.4 |
| 20260510183050 | 66 | 213 | 3.5 | 7.0 | 0.00 | 0.30 | 0.00 | 66 | 1012.3 |
| 20260510181548 | 66 | 238 | 3.5 | 8.7 | 0.00 | 0.30 | 0.00 | 65 | 1012.4 |
| 20260510174549 | 67 | 0 | 0.0 | 9.6 | 0.00 | 0.31 | 0.00 | 63 | 1012.3 |
| 20260510173045 | 67 | 270 | 3.5 | 9.6 | 0.00 | 0.31 | 0.00 | 66 | 1012.2 |
| 20260510171552 | 66 | 262 | 5.2 | 10.4 | 0.00 | 0.31 | 0.00 | 68 | 1012.5 |
| 20260510170053 | 65 | 293 | 4.3 | 10.4 | 0.00 | 0.31 | 0.00 | 67 | 1012.8 |
| 20260510164556 | 65 | 248 | 4.3 | 11.3 | 0.00 | 0.32 | 0.00 | 66 | 1012.5 |
| 20260510163056 | 65 | 262 | 5.2 | 10.4 | 0.00 | 0.32 | 0.00 | 73 | 1012.5 |
| 20260510161548 | 64 | 270 | 5.2 | 11.3 | 0.00 | 0.32 | 0.00 | 70 | 1012.8 |
| 20260510160054 | 64 | 257 | 6.1 | 10.4 | 0.00 | 0.32 | 0.00 | 72 | 1012.9 |
| 20260510154556 | 63 | 207 | 4.3 | 9.6 | 0.00 | 0.33 | 0.00 | 73 | 1012.9 |
| 20260510153053 | 63 | 215 | 3.5 | 11.3 | 0.00 | 0.33 | 0.00 | 75 | 1012.8 |
| 20260510151557 | 62 | 200 | 5.2 | 9.6 | 0.00 | 0.33 | 0.00 | 78 | 1012.8 |
| 20260510150048 | 61 | 276 | 4.3 | 9.6 | 0.00 | 0.33 | 0.00 | 78 | 1012.8 |
| 20260510144609 | 60 | 135 | 1.7 | 7.0 | 0.00 | 0.33 | 0.00 | 82 | 1012.6 |
| 20260510143057 | 59 | 225 | 2.6 | 6.1 | 0.00 | 0.33 | 0.00 | 82 | 1012.7 |
| 20260510141547 | 58 | 119 | 2.6 | 7.8 | 0.00 | 0.33 | 0.00 | 85 | 1012.4 |
| 20260510140050 | 57 | 0 | 0.9 | 6.1 | 0.00 | 0.33 | 0.00 | 86 | 1012.3 |
| 20260510134552 | 56 | 167 | 0.9 | 5.2 | 0.00 | 0.33 | 0.00 | 86 | 1012.5 |
| 20260510133048 | 55 | 261 | 1.7 | 5.2 | 0.00 | 0.33 | 0.00 | 90 | 1012.6 |
| 20260510131551 | 54 | 250 | 0.9 | 6.1 | 0.00 | 0.33 | 0.00 | 91 | 1012.5 |
| 20260510130046 | 53 | 178 | 0.9 | 6.1 | 0.00 | 0.33 | 0.00 | 92 | 1012.5 |
| 20260510124550 | 52 | 0 | 0.0 | 3.5 | 0.00 | 0.33 | 0.00 | 93 | 1012.6 |
| 20260510123053 | 52 | 0 | 0.0 | 0.0 | 0.00 | 0.33 | 0.00 | 94 | 1012.2 |
| 20260510121555 | 52 | 0 | 0.0 | 0.0 | 0.00 | 0.33 | 0.00 | 94 | 1012.2 |
| 20260510120052 | 51 | 0 | 0.0 | 0.0 | 0.00 | 0.33 | 0.00 | 94 | 1012.2 |
| 20260510114547 | 51 | 0 | 0.0 | 0.0 | 0.00 | 0.33 | 0.00 | 95 | 1012.1 |
| 20260510113059 | 51 | 0 | 0.0 | 0.0 | 0.00 | 0.33 | 0.00 | 95 | 1011.8 |
| 20260510111551 | 51 | 0 | 0.0 | 0.0 | 0.00 | 0.33 | 0.00 | 95 | 1011.6 |
| 20260510110059 | 50 | 0 | 0.0 | 0.0 | 0.00 | 0.33 | 0.00 | 95 | 1011.4 |
| 20260510104547 | 50 | 0 | 0.0 | 2.6 | 0.00 | 0.33 | 0.00 | 95 | 1011.2 |
| 20260510103052 | 50 | 0 | 0.0 | 0.9 | 0.00 | 0.33 | 0.00 | 95 | 1011.5 |
| 20260510101556 | 50 | 0 | 0.0 | 3.5 | 0.00 | 0.33 | 0.00 | 95 | 1011.0 |
| 20260510100058 | 50 | 0 | 0.0 | 6.1 | 0.00 | 0.33 | 0.00 | 95 | 1011.2 |
| 20260510094552 | 49 | 0 | 0.0 | 6.1 | 0.00 | 0.33 | 0.00 | 95 | 1011.0 |
| 20260510093051 | 49 | 0 | 1.7 | 6.1 | 0.00 | 0.33 | 0.00 | 95 | 1010.9 |
| 20260510091552 | 49 | 135 | 2.6 | 7.0 | 0.00 | 0.33 | 0.00 | 95 | 1010.6 |
| 20260510090047 | 49 | 135 | 1.7 | 6.1 | 0.00 | 0.33 | 0.00 | 95 | 1010.8 |
| 20260510084553 | 49 | 0 | 0.0 | 2.6 | 0.00 | 0.34 | 0.00 | 95 | 1010.9 |
| 20260510083051 | 49 | 109 | 0.0 | 2.6 | 0.00 | 0.34 | 0.00 | 95 | 1011.0 |
| 20260510081552 | 49 | 144 | 0.0 | 1.7 | 0.00 | 0.34 | 0.00 | 95 | 1011.2 |
| 20260510074550 | 50 | 0 | 0.0 | 2.6 | 0.00 | 0.34 | 0.00 | 95 | 1011.6 |
| 20260510073110 | 50 | 240 | 0.9 | 5.2 | 0.00 | 0.34 | 0.00 | 95 | 1011.8 |
| 20260510071547 | 50 | 280 | 0.0 | 1.7 | 0.00 | 0.34 | 0.00 | 95 | 1011.6 |
| 20260510070056 | 50 | 0 | 0.0 | 0.0 | 0.00 | 0.34 | 0.00 | 95 | 1011.6 |
| 20260510064614 | 50 | 0 | 0.0 | 0.9 | 0.00 | 0.34 | 0.00 | 95 | 1011.2 |
| 20260510063048 | 50 | 167 | 0.0 | 1.7 | 0.00 | 0.34 | 0.00 | 95 | 1011.2 |
| 20260510061546 | 50 | 0 | 0.0 | 3.5 | 0.00 | 0.34 | 0.00 | 95 | 1011.2 |
| 20260510060050 | 50 | 0 | 0.0 | 0.0 | 0.00 | 0.34 | 0.00 | 95 | 1011.2 |
| 20260510054550 | 50 | 0 | 0.0 | 2.6 | 0.00 | 0.34 | 0.00 | 95 | 1011.3 |
| 20260510053054 | 49 | 0 | 0.0 | 2.6 | 0.00 | 0.34 | 0.00 | 95 | 1010.9 |
| 20260510051553 | 49 | 0 | 0.0 | 2.6 | 0.00 | 0.34 | 0.00 | 95 | 1010.9 |
| 20260510044602 | 48 | 0 | 0.0 | 0.9 | 0.00 | 0.34 | 0.00 | 94 | 1011.0 |
| 20260510043053 | 48 | 107 | 0.0 | 0.0 | 0.00 | 0.34 | 0.00 | 94 | 1011.0 |
| 20260510041553 | 48 | 0 | 0.0 | 0.0 | 0.00 | 0.34 | 0.00 | 95 | 1011.1 |
| 20260510040049 | 48 | 0 | 0.0 | 0.0 | 0.00 | 0.34 | 0.00 | 94 | 1011.0 |
| 20260510034608 | 49 | 0 | 0.0 | 0.0 | 0.00 | 0.34 | 0.34 | 94 | 1010.9 |
| 20260510033058 | 49 | 0 | 0.0 | 0.0 | 0.00 | 0.34 | 0.34 | 94 | 1010.8 |
| 20260510031555 | 49 | 0 | 0.0 | 2.6 | 0.00 | 0.34 | 0.34 | 94 | 1011.0 |
| 20260510030111 | 49 | 0 | 0.0 | 4.3 | 0.00 | 0.34 | 0.34 | 94 | 1011.2 |
| 20260510024553 | 49 | 0 | 0.0 | 2.6 | 0.00 | 0.34 | 0.34 | 94 | 1011.1 |
| 20260510023050 | 49 | 0 | 0.9 | 3.5 | 0.00 | 0.34 | 0.34 | 94 | 1010.9 |
| 20260510021559 | 49 | 0 | 0.0 | 0.0 | 0.00 | 0.34 | 0.34 | 94 | 1010.9 |
| 20260510020049 | 49 | 0 | 0.0 | 0.0 | 0.00 | 0.34 | 0.34 | 94 | 1010.9 |
| 20260510014600 | 49 | 0 | 0.0 | 0.0 | 0.00 | 0.34 | 0.34 | 93 | 1011.1 |
| 20260510013103 | 49 | 0 | 0.0 | 0.0 | 0.00 | 0.34 | 0.34 | 93 | 1010.7 |
| 20260510011554 | 50 | 0 | 0.0 | 0.0 | 0.00 | 0.34 | 0.34 | 92 | 1010.5 |
| 20260510010050 | 50 | 0 | 0.0 | 0.0 | 0.00 | 0.34 | 0.34 | 92 | 1010.6 |
| 20260510004550 | 51 | 0 | 0.0 | 1.7 | 0.00 | 0.34 | 0.34 | 92 | 1010.4 |
| 20260510003103 | 51 | 0 | 1.7 | 7.0 | 0.00 | 0.34 | 0.34 | 93 | 1009.9 |
| 20260510001551 | 51 | 85 | 2.6 | 8.7 | 0.00 | 0.34 | 0.34 | 92 | 1009.8 |
| 20260510000106 | 51 | 141 | 1.7 | 9.6 | 0.00 | 0.34 | 0.34 | 92 | 1009.6 |
| 20260509234549 | 52 | 0 | 0.0 | 2.6 | 0.00 | 0.34 | 0.34 | 92 | 1009.7 |
| 20260509233050 | 52 | 212 | 0.9 | 5.2 | 0.00 | 0.34 | 0.34 | 92 | 1009.8 |
| 20260509231553 | 52 | 223 | 1.7 | 7.0 | 0.00 | 0.34 | 0.34 | 91 | 1009.9 |
| 20260509230058 | 53 | 85 | 2.6 | 10.4 | 0.00 | 0.34 | 0.34 | 92 | 1009.5 |